Central Park, NY

11:59 AM EST on January 22, 2018 (GMT -0500)
Central Park

Weather History for KNYC - March, 2013

Change the Weather History Date:

Thursday, March 21, 2013

  Actual Average Record
Temperature  
Mean Temperature 35 °F 44 °F  
Max Temperature 40 °F 51 °F 84 °F (1921)
Min Temperature 30 °F 37 °F 10 °F (1885)
Degree Days  
Heating Degree Days 30 21  
Month to date heating degree days 546 507  
Since 1 July heating degree days 3919 4029  
Cooling Degree Days 0 0  
Month to date cooling degree days 0 0  
Year to date cooling degree days 0 0  
Moisture  
Dew Point 15 °F    
Average Humidity 54    
Maximum Humidity 78    
Minimum Humidity 30    
Precipitation  
Precipitation T in 0.15 in 2.37 in (1871)
Month to date precipitation 2.65 2.83  
Year to date precipitation 9.66 9.57  
Snow  
Snow T in 0.10 in 7.10 in (1958)
Month to date snowfall 7.3 3.2  
Since 1 July snowfall 26.1 24.5  
Snow Depth 0.00 in    
Sea Level Pressure  
Sea Level Pressure 29.73 in    
Wind  
Wind Speed 6 mph (NNW)    
Max Wind Speed 14 mph    
Max Gust Speed 23 mph    
Visibility 10 miles    
Events Snow    
T = Trace of Precipitation, MM = Missing Value Source: NWS Daily Summary

Daily Weather History Graph

Daily Weather History Graph

Search for Another Location

Airport or City:

Trip Planner

Search our weather history database for the weather conditions in past years. The results will help you decide how hot, cold, wet, or windy it might be!

Date:

Astronomy

Mar. 21, 2013 Rise Set
Actual Time 6:57 AM EDT 7:09 PM EDT
Civil Twilight 6:29 AM EDT 7:36 PM EDT
Nautical Twilight 5:57 AM EDT 8:08 PM EDT
Astronomical Twilight 5:25 AM EDT 8:41 PM EDT
Moon 1:35 PM EDT (3/21) 3:19 AM EDT (3/21)
Length of Visible Light 13h 06m
Length of Day
12h 12m
Waxing Gibbous, 68% of the Moon is Illuminated
Mar 21
Waxing Gibbous
Mar 27
Full
Apr 3
Last Quarter
Apr 10
New
Apr 18
First Quarter

Hourly Weather History & Observations

Time (EDT) Temp. Windchill Dew Point Humidity Pressure Visibility Wind Dir Wind Speed Gust Speed Precip Events Conditions
12:51 AM 37.0 °F - 21.9 °F 54% 29.84 in 7.0 mi Calm Calm - 0.00 in Snow Light Snow
1:51 AM 36.0 °F 32.1 °F 23.0 °F 59% 29.82 in 10.0 mi Variable 4.6 mph - 0.00 in   Overcast
2:51 AM 34.0 °F - 24.1 °F 67% 29.80 in 10.0 mi Calm Calm - N/A   Overcast
3:51 AM 32.0 °F 26.4 °F 26.1 °F 79% 29.79 in 9.0 mi Variable 5.8 mph - 0.00 in   Overcast
4:51 AM 32.0 °F 23.6 °F 23.0 °F 69% 29.77 in 10.0 mi North 10.4 mph - N/A   Overcast
5:51 AM 33.1 °F 26.9 °F 21.9 °F 64% 29.77 in 10.0 mi North 6.9 mph - N/A   Overcast
6:51 AM 32.0 °F 26.4 °F 16.0 °F 52% 29.78 in 10.0 mi Variable 5.8 mph - N/A   Overcast
7:51 AM 32.0 °F 24.2 °F 12.0 °F 44% 29.78 in 10.0 mi NNW 9.2 mph - N/A   Overcast
8:51 AM 32.0 °F 26.4 °F 12.0 °F 44% 29.77 in 10.0 mi Variable 5.8 mph - N/A   Overcast
9:51 AM 32.0 °F 26.4 °F 10.9 °F 42% 29.76 in 10.0 mi Variable 5.8 mph - N/A   Overcast
10:51 AM 34.0 °F 28.0 °F 12.9 °F 42% 29.75 in 10.0 mi NE 6.9 mph - N/A   Overcast
11:51 AM 36.0 °F 30.3 °F 14.0 °F 41% 29.72 in 10.0 mi NE 6.9 mph - N/A   Overcast
12:51 PM 35.1 °F - 14.0 °F 42% 29.71 in 10.0 mi North - - N/A   Overcast
1:51 PM 34.0 °F 27.2 °F 14.0 °F 44% 29.68 in 10.0 mi NNE 8.1 mph - N/A   Overcast
2:51 PM 36.0 °F 31.1 °F 14.0 °F 41% 29.66 in 10.0 mi Variable 5.8 mph - N/A   Overcast
3:51 PM 39.0 °F 35.7 °F 14.0 °F 36% 29.64 in 10.0 mi Variable 4.6 mph - N/A   Overcast
4:51 PM 39.0 °F - 10.9 °F 32% 29.63 in 10.0 mi North - - N/A   Overcast
5:51 PM 37.9 °F 35.5 °F 10.9 °F 33% 29.64 in 10.0 mi Variable 3.5 mph - N/A   Overcast
6:51 PM 37.0 °F 34.5 °F 10.0 °F 33% 29.65 in 10.0 mi Variable 3.5 mph - N/A   Mostly Cloudy
7:51 PM 36.0 °F 29.6 °F 9.0 °F 33% 29.67 in 10.0 mi WNW 8.1 mph - N/A   Overcast
8:51 PM 34.0 °F 28.0 °F 10.0 °F 37% 29.69 in 10.0 mi Variable 6.9 mph - N/A   Scattered Clouds
9:51 PM 33.1 °F 25.5 °F 10.9 °F 40% 29.71 in 10.0 mi NW 9.2 mph - N/A   Overcast
10:51 PM 32.0 °F 24.8 °F 10.9 °F 42% 29.72 in 10.0 mi WNW 8.1 mph 16.1 mph N/A   Overcast
11:51 PM 32.0 °F 24.2 °F 10.9 °F 42% 29.74 in 10.0 mi NW 9.2 mph 20.7 mph N/A   Overcast